Location: Saint John
(45.2733°N, 66.0633°W)
Time: 20:29:31
(UTC-03:00)

ISS - Visible Passes

Search period start: 26 July 2021 00:00
Search period end: 05 August 2021 00:00
Orbit: 419 x 421 km, 51.6° (Epoch: 26 July)

Date Brightness Start Highest point End Pass type
(mag) Time Alt. Az. Time Alt. Az. Time Alt. Az.
26 Jul -1.5 00:23:35 10° WNW 00:24:45 19° W 00:24:45 19° W visible
26 Jul -2.4 21:59:22 10° NW 22:02:32 35° NNE 22:05:40 10° E visible
26 Jul -3.2 23:36:10 10° WNW 23:38:58 50° WSW 23:38:58 50° WSW visible
27 Jul -3.8 22:48:49 10° WNW 22:52:12 90° SSW 22:53:13 43° ESE visible
28 Jul -3.4 22:01:30 10° WNW 22:04:52 62° NNE 22:07:30 15° ESE visible
28 Jul -1.7 23:38:44 10° W 23:40:27 20° WSW 23:40:27 20° WSW visible
29 Jul -2.9 22:51:08 10° WNW 22:54:16 35° SW 22:54:48 33° SSW visible
30 Jul -3.5 22:03:41 10° WNW 22:07:01 57° SW 22:09:11 20° SE visible
31 Jul -1.4 22:54:14 10° W 22:56:06 14° SW 22:56:35 14° SW visible
01 Aug -1.9 22:06:16 10° W 22:08:58 22° SW 22:11:05 13° S visible
02 Aug -2.6 21:18:39 10° WNW 21:21:46 35° SW 21:24:52 10° SSE visible
04 Aug -1.1 21:21:46 10° W 21:23:36 14° SW 21:25:25 10° SSW visible
